Location: Atherton
(17.2661°S, 145.4859°E)
Time: 23:15:59
(UTC+10:00)

Transit 2A - Pass Details

Date: 19 June 2025
Orbit: 598 x 948 km, 66.7° (Epoch: 19 July)

Event Time Altitude Azimuth Distance (km) Brightness Sun altitude
Rises 20:31:06 0° 176° (S) 3,404 - -36.4°
Reaches altitude 10° 20:34:54 10° 152° (SSE) 2,382 - -37.3°
Maximum altitude 20:37:44 14° 121° (ESE) 2,031 - -38.0°
Drops below altitude 10° 20:40:26 10° 89° (E) 2,246 - -38.6°
Sets 20:43:48 0° 64° (ENE) 3,080 - -39.3°
